GFSSW_250_spd_159.txt.gz
Wind_Speed
20 20 17 17 17 16 14 13 15 25 38 48 50 46 46 49 50 47 43 44 46 47 48 50 53 55 55 58 59 60 55 53 60 64 67 72 73 72 76 76 75 72 67 68 58
13 16 16 14 11 10 10 8 7 7 10 15 27 41 51 51 54 50 48 50 49 51 54 56 57 58 60 64 66 67 65 62 66 68 68 72 76 78 81 77 79 77 71 70 68
7 8 10 12 10 7 3 2 3 8 11 12 15 21 28 38 49 50 53 53 55 55 56 58 59 61 63 64 66 68 65 69 69 71 73 75 78 81 83 83 82 81 80 73 74
3 2 3 4 6 7 6 6 7 8 11 16 19 22 25 31 37 43 47 50 51 52 54 56 58 60 61 62 65 66 67 69 70 75 76 78 82 82 86 79 85 88 84 81 81
7 4 3 3 4 4 5 6 8 12 16 20 24 27 30 34 38 41 45 48 51 53 56 59 62 64 66 70 74 75 77 77 77 78 79 80 80 82 83 82 87 93 90 86 86
9 9 6 5 7 7 8 10 12 15 17 21 27 32 36 38 43 46 49 54 57 60 63 65 69 72 75 77 80 82 84 85 86 87 88 91 92 89 85 87 87 94 96 92 89
8 8 8 10 11 13 15 17 21 24 27 29 27 30 36 39 43 48 51 55 58 61 65 69 72 77 81 83 88 90 92 94 95 98 98 105 98 96 95 96 96 98 98 97 97
6 8 12 15 16 16 19 23 27 30 30 30 28 30 34 35 40 44 48 53 57 61 65 70 74 81 84 87 91 97 101 102 104 109 110 120 107 107 107 108 105 108 105 102 99
11 14 17 20 22 24 27 29 33 30 30 32 32 34 37 38 43 48 51 57 61 65 70 75 81 85 91 97 101 109 109 113 110 116 119 127 118 116 120 119 117 115 113 108 104
18 19 21 23 27 30 29 34 34 33 32 33 35 36 41 44 49 54 57 61 66 72 81 85 88 92 100 105 106 111 115 118 120 122 132 134 130 126 127 128 126 125 125 117 113
22 25 26 26 28 31 35 36 35 37 35 40 43 47 47 55 58 58 60 65 71 77 85 91 96 100 101 106 108 110 116 120 121 125 128 132 135 136 138 138 133 129 128 125 120
26 27 29 30 32 36 37 38 39 41 44 44 48 53 57 63 63 65 70 73 78 87 95 95 97 99 99 100 105 108 112 111 114 113 120 125 124 126 130 138 142 137 132 127 126
31 31 32 33 37 38 41 44 46 47 49 51 56 60 65 69 69 74 81 82 89 95 94 88 88 88 91 92 93 92 96 99 101 99 108 110 111 112 117 119 130 137 139 133 132
36 36 37 41 42 45 48 50 52 53 51 53 59 66 70 71 76 85 88 89 90 84 77 74 72 71 72 75 76 74 80 79 75 76 82 92 86 88 95 102 108 120 129 135 136
38 40 44 47 49 51 54 57 59 59 62 63 67 70 76 80 84 89 92 94 87 74 66 66 63 65 65 65 64 63 63 61 60 59 62 74 74 74 78 85 94 104 115 123 136
42 45 46 49 51 55 59 62 64 66 69 72 75 76 82 86 93 97 96 88 74 67 60 60 57 54 53 51 48 47 42 41 44 44 49 55 58 60 71 75 79 84 96 106 114
47 48 51 55 59 62 64 67 69 71 75 78 81 87 89 94 100 94 90 79 70 62 58 49 47 39 39 34 32 33 33 29 32 32 39 40 46 55 60 67 68 73 81 88 103
53 54 57 60 64 67 69 72 74 77 79 83 87 87 93 97 99 88 78 74 65 61 48 36 39 25 26 25 24 28 30 26 25 26 32 33 38 44 44 50 59 64 68 76 87
57 59 63 66 67 71 74 75 77 80 83 86 88 94 96 99 90 78 70 66 59 47 33 25 24 24 23 24 22 26 25 25 23 24 22 27 30 33 33 38 44 52 61 68 76
61 67 66 70 72 73 77 80 81 81 86 90 92 95 94 94 77 68 63 57 46 29 22 21 24 25 25 26 25 25 24 24 22 20 20 23 23 25 27 33 34 42 49 59 71
67 69 72 73 76 78 78 80 83 85 91 98 97 91 88 81 69 61 55 47 29 20 22 26 25 24 25 27 32 30 29 27 23 20 12 17 25 23 22 30 32 37 42 50 56
71 76 75 78 81 84 83 86 88 92 95 97 90 87 79 70 65 53 51 29 16 18 21 23 26 32 33 32 33 36 36 33 28 25 21 14 18 18 19 20 26 33 30 35 46
76 77 78 79 79 80 84 89 91 97 96 91 84 74 72 64 55 48 46 18 14 15 18 21 22 26 35 41 44 43 43 37 33 30 26 19 17 12 15 16 20 25 23 29 37
79 79 84 85 87 87 89 90 93 98 93 86 74 62 63 61 49 45 30 15 16 16 17 20 26 33 37 42 45 46 50 44 37 29 26 24 20 11 8 13 14 15 16 26 32
81 86 88 88 92 92 93 94 97 95 88 74 62 54 54 52 49 42 20 7 9 13 14 22 29 36 41 43 48 51 47 38 31 26 23 29 17 16 10 9 9 11 16 24 32
86 87 91 91 92 93 98 99 98 88 74 58 52 49 51 44 39 37 14 8 12 13 18 22 29 36 37 40 41 43 47 39 30 27 21 22 20 14 10 6 7 10 15 23 33
91 91 91 91 96 99 98 100 90 78 61 50 48 46 47 41 36 31 11 8 13 15 16 24 27 34 38 38 40 41 40 35 27 21 13 18 18 9 10 4 10 11 16 21 31

GFSSW_250_spd_162.txt.gz
Wind_Speed
22 21 20 23 21 19 33 43 47 43 42 33 33 35 38 44 47 45 45 47 49 49 51 51 53 57 58 58 57 57 56 58 61 63 67 71 70 72 70 69 71 73 72 70 66
14 17 19 16 17 17 23 42 45 44 40 34 33 36 40 39 44 50 53 53 51 50 51 53 55 55 58 62 61 60 56 58 63 65 66 71 72 76 74 72 76 79 75 72 71
8 11 12 14 14 13 13 16 32 34 35 45 48 46 48 50 50 49 56 57 55 56 55 56 56 57 60 62 64 65 63 67 67 69 69 70 72 72 74 74 79 83 83 79 75
3 5 7 9 9 9 8 9 10 10 11 15 21 26 30 35 41 48 58 58 58 58 59 60 61 62 65 66 70 69 70 71 72 73 75 75 76 77 75 75 81 84 86 87 82
6 3 3 3 4 4 4 2 3 4 7 12 19 24 29 32 34 38 44 51 57 61 65 67 69 69 72 73 74 76 77 76 75 77 79 81 80 81 79 80 87 88 88 88 89
7 6 6 3 4 5 6 7 9 12 15 18 22 24 27 35 38 42 45 49 52 55 59 64 68 70 72 75 77 78 78 80 80 82 84 85 82 85 82 83 86 92 92 93 92
6 6 6 7 7 9 10 13 14 18 22 26 27 28 29 32 38 44 49 53 56 60 63 66 69 72 75 79 83 82 82 84 86 90 89 91 87 87 89 90 92 93 95 96 96
5 6 8 11 12 13 15 17 21 23 26 25 25 27 29 32 36 39 42 46 51 55 60 65 69 73 78 81 86 87 88 90 94 99 100 101 91 95 98 98 97 101 100 101 98
10 12 14 17 19 20 19 21 23 25 28 29 30 34 35 38 40 42 45 48 53 59 64 69 72 76 82 85 88 94 94 97 98 106 108 109 104 104 107 109 106 106 106 107 108
15 17 19 21 22 24 26 28 29 28 31 32 35 39 42 43 46 50 54 57 60 65 71 75 78 82 87 92 92 99 104 105 107 112 118 116 115 113 115 118 117 115 114 116 117
20 22 23 23 24 24 26 30 30 31 35 39 41 45 47 50 52 57 61 66 69 74 79 83 85 91 96 101 102 107 110 114 115 118 124 127 124 123 125 127 123 122 123 122 122
25 26 26 25 25 26 30 34 35 40 41 46 47 49 51 54 57 62 65 69 73 77 84 90 92 97 101 105 109 113 116 118 122 128 130 132 135 135 132 135 134 132 130 125 124
29 29 26 27 30 32 36 39 40 42 46 50 52 55 56 61 62 70 71 74 79 83 86 92 96 105 104 104 107 111 113 116 119 123 127 131 132 134 135 141 139 139 138 139 136
29 29 31 33 35 36 38 40 43 46 50 54 58 60 62 64 69 72 76 80 84 89 91 93 90 88 90 91 93 94 102 104 108 111 114 120 124 122 129 132 135 135 137 138 138
30 33 35 38 40 41 42 45 49 53 58 58 61 63 66 70 73 79 83 87 88 86 81 76 69 68 66 67 72 72 78 81 86 90 93 99 101 104 107 112 116 118 121 122 126
35 38 41 42 44 46 50 52 57 59 62 68 68 70 73 75 80 84 87 80 76 73 69 61 53 52 53 55 55 55 58 62 65 67 71 75 74 80 80 86 91 95 99 103 108
41 43 45 47 49 52 55 58 62 66 69 72 74 77 79 84 89 82 79 71 63 61 57 51 48 43 41 42 43 41 41 41 43 47 49 59 53 62 59 64 70 74 77 82 86
46 47 50 52 55 58 62 65 67 70 73 76 78 79 84 86 87 84 71 63 55 51 49 46 44 37 30 22 25 25 26 28 29 32 34 44 39 46 44 46 51 60 66 70 74
52 54 58 58 62 65 68 70 72 74 76 78 83 88 90 90 82 74 58 56 48 47 43 36 34 28 21 25 16 26 19 20 21 27 24 33 31 32 35 37 44 49 54 59 62
59 60 61 65 66 69 71 73 76 78 81 83 87 91 92 86 79 63 58 50 40 36 33 30 28 16 18 26 25 28 32 27 19 21 26 32 30 27 27 31 38 42 47 51 56
64 65 69 70 72 74 75 77 79 81 82 87 88 89 84 80 71 55 53 46 38 33 24 20 23 29 30 32 35 37 30 34 28 28 22 29 32 31 27 26 30 32 38 43 49
70 68 72 74 76 79 80 82 84 86 89 91 88 90 79 71 63 53 46 41 33 28 27 19 22 27 33 38 40 42 44 42 33 33 31 29 28 29 27 27 27 28 31 29 34
75 77 76 76 79 82 85 87 90 91 89 88 87 84 66 58 53 51 43 36 28 26 21 23 21 26 31 37 37 40 44 47 48 39 33 29 30 32 27 29 26 27 25 27 33
77 79 82 83 84 85 87 89 89 87 88 89 87 79 55 50 50 45 41 35 27 25 19 22 27 32 30 33 33 36 41 47 50 45 35 29 29 35 22 24 25 22 24 24 28
78 82 84 85 88 88 88 89 88 88 92 90 84 65 46 44 47 45 34 34 21 26 21 20 27 34 35 34 36 42 42 46 51 45 35 31 27 35 19 23 24 21 20 19 22
85 86 92 90 92 96 96 95 91 92 89 74 59 50 47 43 38 38 37 28 24 20 21 21 24 32 34 32 40 41 44 47 52 45 38 28 33 18 22 21 20 17 16 15 17
93 94 91 93 94 97 100 99 93 87 82 56 43 42 44 45 41 38 32 30 21 20 21 23 26 26 31 36 42 45 48 49 51 43 31 30 25 18 20 16 17 13 14 15 14

GFSSW_250_spd_165.txt.gz
Wind_Speed
22 21 23 22 15 17 28 31 46 43 32 21 25 31 33 36 41 46 45 45 45 48 51 52 54 52 54 56 59 59 57 56 59 65 68 72 70 71 70 69 70 71 69 65 64
18 20 19 19 18 13 26 34 36 37 34 32 27 25 25 29 31 35 43 46 49 54 57 55 59 60 60 61 61 62 61 61 65 66 67 72 71 74 71 71 75 75 75 71 69
12 14 17 16 15 14 24 34 35 35 35 33 30 27 29 33 35 35 39 43 50 53 55 57 57 55 58 59 61 61 61 64 64 66 67 67 72 74 76 75 78 80 83 79 75
7 9 11 13 14 13 19 32 31 31 34 38 36 37 41 43 43 45 47 47 50 53 57 62 63 63 65 64 66 67 71 69 68 71 72 71 72 76 78 78 81 83 87 88 81
5 4 6 8 8 9 10 13 26 31 26 35 33 29 31 35 39 48 48 47 52 58 62 63 64 66 68 69 71 71 72 72 72 74 77 77 78 79 78 80 83 84 87 91 89
6 3 1 1 3 2 1 2 4 7 10 14 18 22 26 31 32 36 42 46 48 50 54 58 61 64 67 71 75 77 78 80 79 81 82 83 82 82 84 89 89 89 90 95 93
6 5 5 5 5 6 6 8 10 13 15 18 22 27 31 35 36 37 40 45 49 53 58 62 64 66 68 72 75 77 79 83 87 88 88 90 87 89 91 94 95 93 95 97 100
7 7 8 10 12 13 13 13 14 17 19 21 24 27 29 31 35 38 41 45 49 53 57 61 63 68 72 77 80 82 85 86 90 91 93 93 87 91 96 98 97 98 100 101 101
10 11 13 15 17 18 19 19 21 24 24 26 28 29 32 36 40 43 47 50 54 59 63 66 68 72 75 77 79 84 85 87 88 97 100 102 93 97 101 101 101 103 103 104 102
14 15 18 19 20 21 22 22 21 25 29 30 33 35 38 40 44 48 51 56 61 66 70 74 76 79 83 85 86 90 92 92 93 101 104 104 101 105 107 109 110 110 110 109 109
18 19 21 22 23 23 24 25 25 29 32 35 38 40 42 46 49 51 56 61 64 70 74 76 79 82 87 93 96 100 103 104 105 108 114 112 110 109 112 116 119 120 118 116 115
20 22 23 24 24 25 27 30 32 35 37 39 42 45 49 54 56 57 61 63 67 73 76 81 86 92 95 99 102 106 108 112 113 118 118 120 117 118 123 128 128 126 124 122 121
27 27 27 25 26 29 31 33 35 39 40 42 46 52 56 59 62 64 67 69 73 79 83 89 92 95 98 102 105 108 109 111 114 121 124 127 123 128 130 134 134 135 133 131 128
29 29 29 29 31 33 36 38 40 42 45 49 52 56 59 63 68 69 71 76 81 85 89 93 95 93 98 103 103 103 107 109 113 118 120 124 121 128 135 138 141 140 141 139 137
30 32 34 36 37 39 40 42 44 46 49 53 57 62 63 67 73 76 76 81 83 87 90 90 83 82 83 83 85 84 88 91 94 97 101 104 110 105 118 123 129 132 137 140 141
34 36 37 39 41 41 43 46 49 52 56 60 62 66 71 73 77 81 84 86 83 84 82 75 68 64 62 60 58 55 56 61 66 73 78 88 93 89 102 107 110 111 109 113 117
38 40 42 44 46 48 49 52 56 59 62 66 70 74 76 81 84 85 85 84 76 72 67 64 56 47 48 45 50 42 39 41 43 50 50 58 57 63 86 81 86 92 94 98 100
43 45 47 50 53 55 57 58 61 64 69 71 75 77 79 78 82 80 78 78 64 55 54 57 60 36 34 36 35 42 37 29 26 38 43 46 40 48 60 65 64 71 76 76 79
48 50 53 55 58 60 64 66 69 72 73 74 76 75 87 86 81 82 77 67 54 48 47 47 50 34 26 29 27 37 40 37 27 30 32 42 50 49 50 52 54 58 62 63 66
55 56 58 60 63 66 68 70 73 75 76 76 75 81 89 86 81 78 71 56 47 47 45 41 38 39 27 32 31 35 38 41 40 31 29 32 42 55 56 43 43 47 53 54 55
60 63 64 66 67 69 71 72 73 77 80 83 84 86 90 85 80 73 60 50 48 43 39 35 33 41 33 30 42 42 41 35 35 37 27 28 35 47 57 51 36 46 46 50 50
64 67 69 72 71 73 76 77 79 82 85 86 85 93 92 77 73 64 55 45 45 42 38 33 28 32 35 38 42 45 46 45 43 40 42 32 36 46 50 51 35 41 41 44 44
72 70 71 74 77 80 81 84 85 87 90 89 88 88 79 65 57 55 51 46 42 38 37 33 30 29 34 41 41 44 43 46 49 49 51 49 48 43 47 44 28 38 38 39 39
78 80 79 78 82 83 86 88 91 94 95 94 88 80 63 56 54 47 49 43 41 36 34 29 28 30 27 35 36 39 43 48 55 55 51 59 54 50 43 40 23 37 35 33 36
81 83 85 85 86 87 90 94 95 95 92 82 76 66 51 45 45 46 49 43 32 35 32 28 28 32 34 36 36 40 43 51 56 59 55 56 50 43 37 36 29 35 32 28 34
82 85 88 89 88 93 96 97 92 88 72 68 58 51 44 43 39 38 44 39 36 32 29 24 27 33 32 34 37 41 44 49 59 58 58 54 42 35 30 27 28 30 27 26 25
86 87 91 95 95 97 92 90 82 70 65 56 48 39 40 41 42 39 42 37 34 31 27 21 23 26 31 30 37 40 47 53 63 61 55 42 36 29 22 21 20 19 19 20 21

GFSSW_250_spd_168.txt.gz
Wind_Speed
24 25 24 23 18 20 20 30 39 35 31 26 18 24 29 30 35 40 48 54 55 58 55 54 53 52 56 61 61 59 54 52 57 62 65 68 65 68 69 69 69 69 67 65 62
20 20 20 19 17 13 13 29 38 29 19 17 15 20 30 34 35 36 42 41 51 55 57 58 57 64 64 63 64 62 58 58 60 62 64 69 69 71 70 71 73 75 74 70 69
16 16 16 15 14 9 12 30 35 28 26 17 14 16 19 22 23 26 28 35 37 39 47 50 54 58 60 63 65 63 63 65 65 64 65 68 73 73 74 73 75 77 77 76 74
12 12 12 12 11 10 13 30 27 29 29 25 25 19 21 24 24 28 30 32 34 37 43 48 52 56 59 61 64 69 68 66 69 72 70 70 72 74 75 75 77 78 81 80 77
9 10 11 10 10 9 12 22 27 30 31 30 29 31 29 29 35 38 41 44 46 49 50 50 54 59 61 63 66 68 69 69 70 72 75 77 77 77 78 80 80 81 81 85 84
8 7 6 6 6 7 8 12 24 24 26 28 29 30 36 37 29 32 36 38 40 43 47 51 53 56 58 64 66 70 72 75 76 80 81 81 82 82 83 85 83 84 85 87 88
8 7 6 6 5 4 2 5 9 14 18 20 21 22 25 29 31 35 39 41 45 48 51 53 56 60 63 65 67 67 68 72 76 79 83 86 85 85 86 87 88 89 89 89 93
9 8 8 9 10 10 10 12 13 15 17 20 23 25 28 30 32 33 34 37 42 45 47 50 54 59 62 65 68 73 76 79 82 84 85 85 83 90 93 93 94 96 97 97 98
13 12 11 11 12 13 15 17 19 20 22 25 27 28 32 34 35 37 40 42 45 48 52 55 59 62 66 69 73 78 77 80 83 91 94 93 86 90 93 97 100 102 103 104 103
18 17 17 18 18 18 21 23 24 24 25 27 29 33 36 40 42 44 46 47 52 56 57 61 64 66 70 73 76 81 83 86 89 96 100 97 91 93 99 102 103 103 105 107 107
21 19 20 20 22 24 25 25 26 27 30 32 36 39 41 43 44 49 51 55 60 64 67 69 71 71 75 79 82 85 88 91 95 98 102 105 99 98 106 107 109 110 111 110 110
25 25 25 27 28 28 28 27 28 31 33 35 40 43 45 45 47 52 57 62 66 70 73 77 78 79 82 85 89 92 93 97 97 105 107 109 105 106 113 115 119 118 115 115 111
24 26 28 29 29 29 30 32 35 37 39 42 45 48 51 53 54 58 62 68 72 76 78 82 84 85 88 94 95 99 101 102 101 109 111 113 109 115 119 124 126 125 124 122 119
27 28 29 29 30 32 35 37 38 40 42 45 48 52 56 59 61 63 67 71 75 78 82 86 89 91 95 100 103 104 104 103 103 105 109 109 101 109 119 124 129 130 128 128 131
31 31 33 34 35 36 37 39 41 43 46 49 52 55 58 63 68 70 73 78 78 81 81 86 86 89 92 94 95 91 90 89 90 88 91 96 95 97 105 115 123 128 129 130 132
34 36 36 37 39 41 43 45 48 51 53 56 59 62 65 68 73 76 77 78 81 86 86 86 88 85 83 81 80 76 73 72 71 74 71 79 78 75 87 94 101 105 112 120 129
37 39 41 43 44 44 48 50 53 55 57 60 63 65 68 73 73 77 81 87 84 84 85 83 81 75 65 58 61 60 63 53 43 48 54 51 51 50 62 70 76 81 90 97 104
39 41 44 46 49 51 53 56 58 61 63 63 66 68 68 72 77 84 80 82 82 81 71 68 72 65 48 45 45 47 51 43 31 36 44 50 53 56 57 58 63 61 62 72 83
45 47 50 52 55 58 60 61 64 67 68 68 71 73 75 77 86 88 84 80 76 69 57 49 58 62 43 36 35 35 40 42 36 36 40 41 44 48 57 64 61 59 48 56 67
51 53 56 59 61 62 64 67 68 69 71 72 73 75 81 88 91 90 78 71 67 60 51 43 45 58 50 36 30 32 37 37 40 36 34 36 35 37 47 55 57 63 62 51 50
58 60 61 62 65 67 68 70 72 74 76 79 79 82 87 87 90 82 72 64 58 51 46 44 45 51 49 34 34 34 35 37 39 43 35 29 36 47 46 50 52 54 61 59 50
61 62 64 67 71 72 73 75 77 79 81 82 81 88 89 83 76 72 62 60 52 46 43 44 41 42 43 31 33 37 38 44 46 45 43 36 35 50 53 52 49 51 55 61 44
67 67 71 73 74 76 76 78 79 80 82 89 90 82 80 72 64 59 54 55 50 45 40 42 40 37 38 30 33 40 45 51 51 46 44 44 46 58 57 51 54 48 51 52 42
72 73 75 76 79 81 82 83 82 82 84 85 78 71 66 63 59 49 50 46 45 42 41 37 38 34 29 26 30 39 45 48 48 44 46 56 54 65 57 51 50 44 39 40 43
74 78 77 78 78 83 84 82 81 85 81 72 67 58 51 49 43 46 51 47 47 41 38 38 35 30 27 22 32 36 39 43 48 53 55 63 65 60 50 42 40 35 31 31 31
79 82 82 88 83 81 79 76 79 73 64 55 48 48 45 42 42 40 41 44 47 44 41 35 35 27 29 24 29 37 40 42 55 56 60 61 57 51 39 35 32 29 27 29 27
84 87 89 84 77 72 75 71 62 53 53 47 43 46 49 48 47 46 44 46 42 42 40 34 31 24 31 27 33 39 43 49 58 55 58 52 46 43 40 33 27 24 23 17 18

GFSSW_250_spd_174.txt.gz
Wind_Speed
27 30 31 32 35 32 27 23 21 20 24 26 26 27 27 33 37 43 54 65 66 61 54 44 47 60 62 56 54 54 61 64 61 57 60 62 62 63 60 60 56 55 56 56 55
23 24 26 24 27 30 35 32 23 23 20 20 19 21 22 24 26 35 51 59 63 63 63 49 46 46 48 59 58 49 57 59 63 67 67 67 66 65 66 65 65 60 60 60 60
19 20 20 20 20 21 21 21 27 27 25 20 16 20 21 21 24 30 41 61 60 58 55 58 55 58 53 56 68 69 71 69 69 67 69 70 71 67 71 70 70 69 68 66 65
16 16 17 16 12 19 23 24 17 18 16 14 12 11 14 19 22 26 29 49 65 57 61 58 60 57 61 65 66 67 66 66 68 71 71 71 71 71 73 75 77 77 75 73 73
13 13 13 14 11 12 15 18 19 15 8 7 8 8 10 8 11 11 15 23 42 49 55 65 62 59 60 63 65 66 67 70 72 76 75 76 75 75 75 76 79 81 81 82 81
11 10 10 8 9 7 13 15 14 17 11 10 11 13 14 15 15 20 20 21 24 34 37 47 57 58 52 53 66 70 72 73 70 69 72 75 77 78 79 79 77 79 83 84 85
7 6 5 4 3 3 3 11 15 16 17 16 17 20 22 23 25 26 29 29 31 34 37 40 44 48 55 59 62 64 65 68 69 71 73 73 73 76 76 78 80 82 83 85 86
8 7 5 3 3 2 5 9 13 18 17 19 22 27 30 29 30 31 31 30 32 35 38 40 43 45 48 52 56 59 61 63 64 67 69 69 70 73 75 79 78 80 81 80 81
12 11 10 10 10 11 11 11 12 15 17 21 25 28 31 32 34 35 37 39 40 41 42 45 48 50 52 55 58 59 62 64 67 67 69 69 68 76 77 77 79 82 83 84 83
15 13 15 15 16 16 16 16 16 18 20 23 26 28 31 33 35 38 39 41 41 44 48 51 53 56 58 62 65 65 68 71 74 74 75 77 73 81 81 80 83 86 86 87 88
19 16 15 16 19 22 23 23 23 24 25 26 27 29 32 34 37 40 43 46 48 51 54 56 58 61 63 67 70 72 74 77 81 83 83 86 81 89 91 91 94 94 92 92 93
20 20 21 20 19 20 23 25 26 27 27 28 31 33 36 39 41 44 46 50 52 55 59 62 64 67 69 72 74 77 80 84 86 90 91 92 88 94 97 100 102 101 101 101 99
23 23 24 25 26 26 27 27 28 29 30 33 36 38 42 44 47 49 52 55 58 61 64 67 70 73 75 78 79 83 86 90 92 98 99 96 97 99 103 109 112 109 107 106 105
30 30 30 30 31 32 32 33 33 34 37 40 42 44 45 48 51 54 57 60 63 67 70 73 76 79 82 84 85 89 92 95 100 102 105 103 100 106 107 113 118 116 110 109 109
35 34 34 35 35 36 37 38 39 41 44 45 48 50 51 53 55 59 63 66 69 71 75 78 81 84 86 88 90 91 93 97 102 105 102 109 100 108 107 117 117 115 112 109 114
36 35 32 34 36 36 38 39 41 44 46 49 51 54 55 57 60 62 65 69 72 75 80 83 85 86 87 88 90 92 96 101 103 104 104 106 106 108 110 110 114 117 117 116 116
35 36 37 38 39 41 43 44 46 48 50 53 55 58 61 62 63 65 67 71 74 77 79 83 85 87 88 91 92 94 99 96 96 96 97 93 89 90 89 91 93 94 96 96 94
38 39 39 39 39 41 43 45 48 49 52 54 57 59 61 64 66 67 71 75 76 78 81 85 92 89 85 84 81 80 81 81 79 80 79 75 71 75 75 77 76 74 77 81 81
40 41 42 42 43 46 48 50 52 53 56 59 61 62 65 69 73 74 78 82 81 83 85 86 86 87 80 75 70 67 67 67 63 62 61 61 64 66 66 67 64 63 69 73 74
44 45 47 48 50 51 52 54 57 59 61 62 66 68 71 75 78 79 82 82 81 80 80 77 73 77 69 61 58 58 54 52 51 48 50 52 54 55 61 59 59 62 65 68 75
48 49 52 52 54 56 58 61 62 64 66 70 70 73 77 79 81 82 78 73 72 69 66 64 64 65 60 54 49 46 45 42 42 43 42 40 43 52 54 57 61 64 66 66 72
52 54 56 58 59 60 63 64 66 68 70 73 74 79 78 77 75 68 65 62 59 56 56 56 56 54 62 54 45 44 41 40 38 40 39 33 32 45 47 47 52 55 62 71 77
58 58 59 59 64 68 68 70 70 73 75 77 78 74 70 61 56 51 51 52 53 51 51 51 54 48 52 51 45 46 40 36 36 36 38 30 39 49 44 48 55 60 68 72 72
59 62 66 68 70 71 74 76 77 75 74 68 60 52 47 46 45 46 45 46 49 47 48 48 52 52 50 46 37 43 43 38 35 33 27 33 29 40 45 51 60 62 61 61 48
65 67 69 74 74 78 78 76 69 62 54 46 44 43 41 43 44 43 44 42 51 47 45 49 49 51 53 47 44 42 38 38 37 32 23 33 39 35 48 56 59 63 58 55 46
70 75 79 78 79 76 66 56 49 45 45 44 44 44 43 44 45 51 49 49 50 50 48 47 44 50 55 50 43 40 35 35 37 32 24 32 37 43 53 58 60 61 50 45 42
76 79 79 79 72 59 48 45 46 46 47 45 44 47 49 50 53 52 53 57 55 52 53 47 37 45 47 47 46 40 35 34 32 31 27 32 39 48 58 62 59 49 43 32 33